| time (UTC) | temp C | wind direction | speed KPH | gust KPH | rain 1hr cm | rain 24hr cm | rain mn cm | humidity % | barometer mb |
| 20260505035334 | 6 | 173 | 4.8 | 9.7 | 0.00 | 0.51 | 0.51 | 37 | 1018.3 |
| 20260505034832 | 6 | 140 | 0.0 | 8.0 | 0.00 | 0.51 | 0.51 | 39 | 1018.1 |
| 20260505034328 | 6 | 81 | 1.6 | 6.4 | 0.00 | 0.51 | 0.51 | 38 | 1018.5 |
| 20260505033826 | 6 | 202 | 6.4 | 8.0 | 0.00 | 0.51 | 0.51 | 36 | 1018.3 |
| 20260505033322 | 7 | 206 | 11.3 | 16.1 | 0.00 | 0.51 | 0.51 | 35 | 1018.3 |
| 20260505032821 | 6 | 176 | 14.5 | 14.5 | 0.00 | 0.51 | 0.51 | 38 | 1017.9 |
| 20260505032316 | 7 | 173 | 4.8 | 12.9 | 0.00 | 0.51 | 0.51 | 35 | 1017.9 |
| 20260505031814 | 7 | 213 | 6.4 | 19.3 | 0.00 | 0.51 | 0.51 | 34 | 1017.9 |
| 20260505031310 | 6 | 130 | 4.8 | 11.3 | 0.00 | 0.51 | 0.51 | 34 | 1018.1 |
| 20260505030808 | 7 | 171 | 4.8 | 16.1 | 0.00 | 0.51 | 0.51 | 34 | 1017.9 |
| 20260505030304 | 7 | 189 | 6.4 | 17.7 | 0.00 | 0.51 | 0.51 | 34 | 1018.1 |
| 20260505025759 | 6 | 174 | 9.7 | 20.9 | 0.00 | 0.51 | 0.51 | 34 | 1018.1 |
| 20260505025257 | 6 | 142 | 4.8 | 6.4 | 0.00 | 0.51 | 0.51 | 38 | 1018.0 |
| 20260505024755 | 7 | 163 | 4.8 | 6.4 | 0.00 | 0.51 | 0.51 | 34 | 1017.7 |
| 20260505024252 | 6 | 127 | 4.8 | 9.7 | 0.00 | 0.51 | 0.51 | 36 | 1017.7 |
| 20260505023749 | 7 | 164 | 9.7 | 16.1 | 0.00 | 0.51 | 0.51 | 33 | 1017.6 |
| 20260505023246 | 7 | 243 | 9.7 | 19.3 | 0.00 | 0.51 | 0.51 | 33 | 1017.7 |
| 20260505022744 | 7 | 203 | 6.4 | 12.9 | 0.00 | 0.51 | 0.51 | 32 | 1017.7 |
| 20260505022241 | 7 | 109 | 8.0 | 14.5 | 0.00 | 0.51 | 0.51 | 34 | 1017.9 |
| 20260505021737 | 7 | 19 | 4.8 | 11.3 | 0.00 | 0.51 | 0.51 | 33 | 1017.7 |
| 20260505021235 | 7 | 245 | 0.0 | 11.3 | 0.00 | 0.51 | 0.51 | 32 | 1017.6 |
| 20260505020730 | 6 | 359 | 6.4 | 9.7 | 0.00 | 0.51 | 0.51 | 34 | 1017.6 |
| 20260505020225 | 6 | 216 | 3.2 | 9.7 | 0.00 | 0.51 | 0.51 | 36 | 1017.9 |
| 20260505015723 | 6 | 84 | 8.0 | 9.7 | 0.00 | 0.51 | 0.51 | 35 | 1017.7 |
| 20260505015220 | 6 | 57 | 3.2 | 8.0 | 0.00 | 0.51 | 0.51 | 37 | 1017.7 |
| 20260505014717 | 7 | 162 | 0.0 | 8.0 | 0.00 | 0.51 | 0.51 | 32 | 1017.6 |
| 20260505014214 | 7 | 99 | 4.8 | 9.7 | 0.00 | 0.51 | 0.51 | 33 | 1017.6 |
| 20260505013711 | 7 | 139 | 1.6 | 6.4 | 0.00 | 0.51 | 0.51 | 30 | 1017.5 |
| 20260505013208 | 7 | 179 | 9.7 | 16.1 | 0.00 | 0.51 | 0.51 | 30 | 1017.5 |
| 20260505012706 | 7 | 129 | 4.8 | 24.1 | 0.00 | 0.51 | 0.51 | 29 | 1017.6 |
| 20260505012203 | 7 | 125 | 4.8 | 8.0 | 0.00 | 0.51 | 0.51 | 29 | 1017.6 |
| 20260505011659 | 7 | 246 | 6.4 | 8.0 | 0.00 | 0.51 | 0.51 | 27 | 1017.5 |
| 20260505011156 | 7 | 40 | 1.6 | 4.8 | 0.00 | 0.51 | 0.51 | 30 | 1017.9 |
| 20260505010651 | 8 | 233 | 1.6 | 6.4 | 0.00 | 0.51 | 0.51 | 28 | 1017.7 |
| 20260505010149 | 8 | 163 | 6.4 | 27.4 | 0.00 | 0.51 | 0.51 | 26 | 1017.7 |
| 20260505005644 | 8 | 191 | 16.1 | 29.0 | 0.00 | 0.51 | 0.51 | 27 | 1017.7 |
| 20260505005142 | 8 | 178 | 14.5 | 27.4 | 0.00 | 0.51 | 0.51 | 27 | 1017.9 |
| 20260505004639 | 8 | 206 | 12.9 | 25.7 | 0.00 | 0.51 | 0.51 | 29 | 1017.7 |
| 20260505004135 | 8 | 237 | 17.7 | 48.3 | 0.00 | 0.51 | 0.51 | 29 | 1017.6 |
| 20260505003632 | 8 | 212 | 32.2 | 41.8 | 0.00 | 0.51 | 0.51 | 30 | 1017.9 |
| 20260505003130 | 8 | 243 | 29.0 | 35.4 | 0.00 | 0.51 | 0.51 | 32 | 1017.6 |
| 20260505002626 | 8 | 205 | 9.7 | 53.1 | 0.00 | 0.51 | 0.51 | 31 | 1017.7 |
| 20260505002124 | 8 | 185 | 9.7 | 29.0 | 0.00 | 0.51 | 0.51 | 35 | 1017.6 |
| 20260505001621 | 8 | 182 | 27.4 | 38.6 | 0.00 | 0.51 | 0.51 | 35 | 1017.6 |
| 20260505001119 | 8 | 250 | 19.3 | 41.8 | 0.00 | 0.51 | 0.51 | 34 | 1017.5 |
| 20260505000615 | 8 | 218 | 45.1 | 61.2 | 0.00 | 0.51 | 0.51 | 32 | 1017.6 |
| 20260505000114 | 8 | 230 | 25.7 | 59.5 | 0.00 | 0.51 | 0.51 | 35 | 1017.3 |
| 20260504235609 | 8 | 228 | 40.2 | 61.2 | 0.00 | 0.51 | 0.51 | 34 | 1017.6 |
| 20260504235106 | 9 | 229 | 29.0 | 33.8 | 0.00 | 0.51 | 0.51 | 36 | 1017.2 |
| 20260504234603 | 9 | 233 | 33.8 | 48.3 | 0.00 | 0.51 | 0.51 | 36 | 1017.2 |
| 20260504234100 | 9 | 191 | 41.8 | 41.8 | 0.00 | 0.51 | 0.51 | 34 | 1017.5 |
| 20260504233555 | 9 | 241 | 17.7 | 35.4 | 0.00 | 0.51 | 0.51 | 32 | 1017.6 |
| 20260504233052 | 10 | 238 | 22.5 | 43.5 | 0.00 | 0.51 | 0.51 | 31 | 1017.5 |
| 20260504232550 | 9 | 231 | 20.9 | 56.3 | 0.00 | 0.51 | 0.51 | 31 | 1017.7 |
| 20260504232047 | 9 | 229 | 8.0 | 45.1 | 0.00 | 0.51 | 0.51 | 29 | 1017.5 |
| 20260504231543 | 9 | 222 | 20.9 | 53.1 | 0.00 | 0.51 | 0.51 | 28 | 1017.5 |
| 20260504231040 | 10 | 227 | 12.9 | 46.7 | 0.00 | 0.51 | 0.51 | 33 | 1017.5 |
| 20260504230536 | 9 | 237 | 14.5 | 54.7 | 0.00 | 0.51 | 0.51 | 38 | 1017.2 |
| 20260504230035 | 10 | 207 | 14.5 | 54.7 | 0.00 | 0.51 | 0.51 | 35 | 1017.1 |
| 20260504225532 | 10 | 238 | 16.1 | 37.0 | 0.00 | 0.51 | 0.51 | 35 | 1017.2 |
| 20260504225029 | 10 | 236 | 14.5 | 38.6 | 0.00 | 0.51 | 0.51 | 37 | 1016.8 |
| 20260504224525 | 10 | 253 | 29.0 | 59.5 | 0.00 | 0.51 | 0.51 | 37 | 1017.2 |
| 20260504224023 | 10 | 241 | 12.9 | 59.5 | 0.00 | 0.51 | 0.51 | 39 | 1017.2 |
| 20260504223519 | 10 | 224 | 27.4 | 45.1 | 0.00 | 0.51 | 0.51 | 37 | 1017.3 |
| 20260504223015 | 10 | 207 | 24.1 | 43.5 | 0.00 | 0.51 | 0.51 | 37 | 1017.5 |
| 20260504222512 | 11 | 247 | 20.9 | 54.7 | 0.00 | 0.51 | 0.51 | 33 | 1017.2 |
| 20260504222010 | 11 | 215 | 25.7 | 35.4 | 0.00 | 0.51 | 0.51 | 38 | 1017.5 |
| 20260504221507 | 10 | 205 | 19.3 | 49.9 | 0.00 | 0.51 | 0.51 | 38 | 1017.7 |
| 20260504221004 | 12 | 234 | 11.3 | 33.8 | 0.00 | 0.51 | 0.51 | 37 | 1017.5 |
| 20260504220500 | 11 | 234 | 17.7 | 33.8 | 0.00 | 0.51 | 0.51 | 36 | 1017.6 |
| 20260504215957 | 10 | 222 | 14.5 | 29.0 | 0.00 | 0.51 | 0.51 | 36 | 1017.6 |
| 20260504215453 | 10 | 239 | 49.9 | 49.9 | 0.00 | 0.51 | 0.51 | 38 | 1017.7 |
| 20260504214950 | 11 | 224 | 24.1 | 32.2 | 0.00 | 0.51 | 0.51 | 36 | 1017.6 |
| 20260504214446 | 10 | 226 | 27.4 | 48.3 | 0.00 | 0.51 | 0.51 | 34 | 1017.9 |
| 20260504213943 | 11 | 240 | 16.1 | 35.4 | 0.00 | 0.51 | 0.51 | 37 | 1017.7 |
| 20260504213439 | 10 | 230 | 14.5 | 37.0 | 0.00 | 0.51 | 0.51 | 37 | 1018.0 |
| 20260504212937 | 10 | 229 | 27.4 | 51.5 | 0.00 | 0.51 | 0.51 | 34 | 1018.1 |
| 20260504212432 | 10 | 225 | 24.1 | 46.7 | 0.00 | 0.51 | 0.51 | 36 | 1018.1 |
| 20260504211931 | 11 | 233 | 12.9 | 48.3 | 0.00 | 0.51 | 0.51 | 35 | 1018.0 |
| 20260504211426 | 10 | 228 | 27.4 | 51.5 | 0.00 | 0.51 | 0.51 | 35 | 1018.3 |
| 20260504210924 | 10 | 236 | 16.1 | 40.2 | 0.00 | 0.51 | 0.51 | 38 | 1018.3 |
| 20260504210421 | 10 | 226 | 20.9 | 66.0 | 0.00 | 0.51 | 0.51 | 36 | 1018.4 |
| 20260504205918 | 10 | 238 | 32.2 | 56.3 | 0.00 | 0.51 | 0.51 | 34 | 1018.3 |
| 20260504205416 | 11 | 209 | 35.4 | 40.2 | 0.00 | 0.51 | 0.51 | 38 | 1018.4 |
| 20260504204914 | 10 | 219 | 27.4 | 35.4 | 0.00 | 0.51 | 0.51 | 39 | 1018.4 |
| 20260504204412 | 10 | 227 | 11.3 | 41.8 | 0.00 | 0.51 | 0.51 | 39 | 1018.5 |
| 20260504203911 | 10 | 216 | 24.1 | 33.8 | 0.00 | 0.51 | 0.51 | 38 | 1018.5 |
| 20260504203408 | 10 | 217 | 8.0 | 38.6 | 0.00 | 0.51 | 0.51 | 40 | 1018.7 |
| 20260504202903 | 10 | 221 | 24.1 | 48.3 | 0.00 | 0.51 | 0.51 | 38 | 1018.9 |
| 20260504202400 | 10 | 240 | 22.5 | 41.8 | 0.00 | 0.51 | 0.51 | 40 | 1018.8 |
| 20260504201857 | 10 | 221 | 32.2 | 41.8 | 0.00 | 0.51 | 0.51 | 41 | 1018.5 |
| 20260504201355 | 10 | 238 | 12.9 | 33.8 | 0.00 | 0.51 | 0.51 | 39 | 1018.8 |
| 20260504200852 | 10 | 213 | 9.7 | 41.8 | 0.00 | 0.51 | 0.51 | 40 | 1018.8 |
| 20260504200348 | 10 | 225 | 16.1 | 40.2 | 0.00 | 0.51 | 0.51 | 39 | 1018.9 |
| 20260504195845 | 10 | 226 | 24.1 | 43.5 | 0.00 | 0.51 | 0.51 | 39 | 1019.1 |
| 20260504195340 | 11 | 264 | 14.5 | 38.6 | 0.00 | 0.51 | 0.51 | 38 | 1018.9 |
| 20260504194837 | 10 | 226 | 25.7 | 40.2 | 0.00 | 0.51 | 0.51 | 39 | 1018.7 |
| 20260504194333 | 10 | 225 | 22.5 | 40.2 | 0.00 | 0.51 | 0.51 | 41 | 1018.9 |
| 20260504193829 | 10 | 228 | 9.7 | 37.0 | 0.00 | 0.51 | 0.51 | 40 | 1018.9 |
| 20260504193327 | 10 | 200 | 27.4 | 38.6 | 0.00 | 0.51 | 0.51 | 43 | 1018.9 |
| 20260504192826 | 10 | 209 | 37.0 | 57.9 | 0.00 | 0.51 | 0.51 | 42 | 1018.9 |
| 20260504192323 | 10 | 219 | 11.3 | 25.7 | 0.00 | 0.51 | 0.51 | 41 | 1018.9 |
| 20260504191822 | 11 | 220 | 14.5 | 33.8 | 0.00 | 0.51 | 0.51 | 42 | 1018.9 |
| 20260504191319 | 10 | 231 | 14.5 | 35.4 | 0.00 | 0.51 | 0.51 | 42 | 1019.1 |
| 20260504190814 | 11 | 253 | 35.4 | 35.4 | 0.00 | 0.51 | 0.51 | 41 | 1018.8 |
| 20260504190310 | 10 | 228 | 24.1 | 29.0 | 0.00 | 0.51 | 0.51 | 43 | 1019.2 |
| 20260504185807 | 10 | 218 | 11.3 | 38.6 | 0.00 | 0.51 | 0.51 | 41 | 1019.2 |
| 20260504185305 | 10 | 210 | 12.9 | 48.3 | 0.00 | 0.51 | 0.51 | 39 | 1018.9 |
| 20260504184800 | 10 | 233 | 17.7 | 38.6 | 0.00 | 0.51 | 0.51 | 44 | 1019.2 |
| 20260504184256 | 10 | 225 | 29.0 | 41.8 | 0.00 | 0.51 | 0.51 | 44 | 1019.1 |
| 20260504183752 | 10 | 212 | 12.9 | 22.5 | 0.00 | 0.51 | 0.51 | 46 | 1019.3 |
| 20260504183249 | 10 | 192 | 14.5 | 32.2 | 0.00 | 0.51 | 0.51 | 44 | 1019.1 |
| 20260504182747 | 10 | 266 | 12.9 | 27.4 | 0.00 | 0.51 | 0.51 | 48 | 1019.2 |
| 20260504182244 | 10 | 232 | 16.1 | 35.4 | 0.00 | 0.51 | 0.51 | 46 | 1019.2 |
| 20260504181742 | 11 | 209 | 14.5 | 29.0 | 0.00 | 0.51 | 0.51 | 45 | 1019.5 |
| 20260504181239 | 10 | 221 | 9.7 | 29.0 | 0.00 | 0.51 | 0.51 | 47 | 1019.6 |
| 20260504180738 | 10 | 239 | 19.3 | 27.4 | 0.00 | 0.51 | 0.51 | 45 | 1019.5 |
| 20260504180236 | 10 | 226 | 17.7 | 30.6 | 0.00 | 0.51 | 0.51 | 44 | 1019.7 |
| 20260504175733 | 10 | 220 | 22.5 | 32.2 | 0.00 | 0.51 | 0.51 | 45 | 1019.5 |
| 20260504175230 | 10 | 218 | 14.5 | 29.0 | 0.00 | 0.51 | 0.51 | 45 | 1019.7 |
| 20260504174728 | 10 | 227 | 12.9 | 22.5 | 0.00 | 0.51 | 0.51 | 47 | 1019.7 |
| 20260504174226 | 10 | 247 | 17.7 | 24.1 | 0.00 | 0.51 | 0.51 | 46 | 1019.6 |
| 20260504173722 | 10 | 239 | 20.9 | 40.2 | 0.00 | 0.51 | 0.51 | 48 | 1019.7 |
| 20260504173219 | 10 | 227 | 27.4 | 32.2 | 0.00 | 0.51 | 0.51 | 47 | 1019.9 |
| 20260504172715 | 10 | 212 | 9.7 | 22.5 | 0.00 | 0.51 | 0.51 | 50 | 1019.7 |
| 20260504172212 | 10 | 244 | 17.7 | 33.8 | 0.00 | 0.51 | 0.51 | 48 | 1020.0 |
| 20260504171708 | 10 | 248 | 16.1 | 29.0 | 0.00 | 0.51 | 0.51 | 51 | 1020.0 |
| 20260504171206 | 10 | 243 | 4.8 | 24.1 | 0.00 | 0.51 | 0.51 | 56 | 1019.9 |
| 20260504170702 | 9 | 241 | 16.1 | 20.9 | 0.00 | 0.51 | 0.51 | 59 | 1020.1 |
| 20260504170200 | 8 | 180 | 14.5 | 33.8 | 0.00 | 0.51 | 0.51 | 59 | 1020.3 |
| 20260504160118 | 7 | 212 | 16.1 | 37.0 | 0.00 | 0.51 | 0.51 | 62 | 1020.3 |
| 20260504151045 | 7 | 229 | 8.0 | 19.3 | 0.00 | 0.51 | 0.51 | 69 | 1020.7 |
| 20260504150543 | 6 | 250 | 14.5 | 16.1 | 0.00 | 0.51 | 0.51 | 71 | 1020.5 |
| 20260504141008 | 5 | 186 | 4.8 | 4.8 | 0.00 | 0.51 | 0.51 | 79 | 1020.9 |
| 20260504140505 | 5 | 86 | 4.8 | 11.3 | 0.00 | 0.51 | 0.51 | 81 | 1020.8 |
| 20260504130430 | 2 | 94 | 6.4 | 11.3 | 0.00 | 0.51 | 0.51 | 93 | 1020.5 |
| 20260504110317 | 1 | 97 | 9.7 | 19.3 | 0.00 | 0.51 | 0.51 | 97 | 1021.2 |
| 20260504100234 | 1 | 224 | 3.2 | 6.4 | 0.00 | 0.51 | 0.51 | 97 | 1021.7 |
| 20260504081628 | 1 | 161 | 6.4 | 9.7 | 0.05 | 0.30 | 0.30 | 95 | 1022.1 |
| 20260504081123 | 1 | 153 | 6.4 | 11.3 | 0.13 | 0.30 | 0.30 | 95 | 1022.0 |
| 20260504080620 | 1 | 127 | 9.7 | 12.9 | 0.23 | 0.28 | 0.28 | 95 | 1021.8 |
| 20260504080117 | 1 | 167 | 4.8 | 4.8 | 0.30 | 0.28 | 0.28 | 95 | 1022.1 |
| 20260504050433 | 5 | 205 | 35.4 | 54.7 | 0.00 | 0.00 | 0.00 | 67 | 1022.9 |
| 20260504045930 | 5 | 213 | 48.3 | 66.0 | 0.00 | 0.00 | 0.00 | 63 | 1022.6 |
| 20260504045426 | 6 | 223 | 35.4 | 53.1 | 0.00 | 0.00 | 0.00 | 59 | 1022.5 |
| 20260504044922 | 6 | 219 | 33.8 | 45.1 | 0.00 | 0.00 | 0.00 | 55 | 1022.8 |
| 20260504044420 | 6 | 197 | 25.7 | 43.5 | 0.00 | 0.00 | 0.00 | 54 | 1022.8 |
| 20260504043917 | 6 | 205 | 22.5 | 46.7 | 0.00 | 0.00 | 0.00 | 51 | 1023.0 |
| 20260504043414 | 7 | 213 | 24.1 | 38.6 | 0.00 | 0.00 | 0.00 | 50 | 1022.8 |
| 20260504042912 | 6 | 202 | 14.5 | 35.4 | 0.00 | 0.00 | 0.00 | 50 | 1022.6 |
| 20260504042408 | 7 | 214 | 20.9 | 49.9 | 0.00 | 0.00 | 0.00 | 49 | 1022.6 |
| 20260504041904 | 7 | 221 | 32.2 | 64.4 | 0.00 | 0.00 | 0.00 | 48 | 1022.2 |
| 20260504041400 | 8 | 215 | 17.7 | 49.9 | 0.00 | 0.00 | 0.00 | 43 | 1022.1 |
| 20260504040856 | 8 | 230 | 40.2 | 70.8 | 0.00 | 0.00 | 0.00 | 41 | 1021.7 |
| 20260504040354 | 7 | 218 | 16.1 | 20.9 | 0.00 | 0.00 | 0.00 | 37 | 1022.0 |
| 20260504035850 | 7 | 199 | 8.0 | 14.5 | 0.00 | 0.00 | 0.00 | 36 | 1021.7 |